Location: Newark
(46.7000°N, 60.6000°W)
Time: 20:38:44
(UTC+00:00)

Envisat - Pass Details

Date: 22 September 2020
Orbit: 764 x 766 km, 98.1° (Epoch: 20 October)

Event Time Altitude Azimuth Distance (km) Brightness Sun altitude
Rises 08:40:46 0° 32° (NNE) 3,242 7.0 -12.6°
Reaches altitude 10° 08:44:27 10° 59° (ENE) 2,308 6.8 -11.9°
Maximum altitude 08:46:47 13° 87° (E) 2,094 6.6 -11.6°
Drops below altitude 10° 08:49:07 10° 115° (ESE) 2,300 6.3 -11.2°
Sets 08:52:45 0° 142° (SE) 3,219 6.6 -10.6°
